Location: Ash Swamp
(41.5170°N, 74.6157°W)
Time: 02:48:18
(UTC+00:00)

Okean 3 Rocket - Pass Details

Date: 14 July 2020
Orbit: 615 x 645 km, 82.5° (Epoch: 14 August)

Event Time Altitude Azimuth Distance (km) Brightness Sun altitude
Exits shadow 03:08:13 61° 147° (SSE) 710 3.5 -21.4°
Maximum altitude 03:08:48 71° 96° (E) 662 3.5 -21.4°
Drops below altitude 10° 03:13:12 10° 12° (NNE) 1,995 6.8 -21.8°
Sets 03:15:26 0° 11° (N) 2,902 7.8 -22.0°
